When you browse on this site, cookies collect data to enhance your experience and personalize the content and advertising you see.
Visit our Privacy Policy to learn more. By continuing to use the site, you agree to this use of cookies and data.
  • In Spain
  • List of Countries
  • For 7 days
  • Water Temperature
  • Satellite Maps
  • Weather Map
  • Weather Widgets
  • user-avatar
    Login

    Hourly Weather Lingere

    Today, 19 December, Wednesday

    Time Temperature Precipitation Wind Pressure Humidity
    00:00 +17°C° 0 mm 6 mps 732 mmHg 23%
    01:00 +16°C° 0 mm 6 mps 732 mmHg 26%
    02:00 +15°C° 0 mm 5 mps 732 mmHg 28%
    03:00 +15°C° 0 mm 5 mps 732 mmHg 29%
    04:00 +14°C° 0 mm 5 mps 732 mmHg 30%
    05:00 +14°C° 0 mm 6 mps 732 mmHg 31%
    06:00 +14°C° 0 mm 6 mps 732 mmHg 31%
    07:00 +14°C° 0 mm 6 mps 733 mmHg 32%
    08:00 +16°C° 0 mm 7 mps 733 mmHg 27%
    09:00 +20°C° 0 mm 8 mps 733 mmHg 23%
    10:00 +22°C° 0 mm 10 mps 733 mmHg 19%
    11:00 +23°C° 0 mm 9 mps 733 mmHg 17%
    12:00 +26°C° 0 mm 9 mps 733 mmHg 15%
    13:00 +28°C° 0 mm 9 mps 732 mmHg 13%
    14:00 +28°C° 0 mm 9 mps 732 mmHg 13%
    15:00 +28°C° 0 mm 8 mps 731 mmHg 13%
    16:00 +28°C° 0 mm 8 mps 731 mmHg 13%
    17:00 +26°C° 0 mm 7 mps 731 mmHg 15%
    18:00 +23°C° 0 mm 6 mps 731 mmHg 17%
    19:00 +21°C° 0 mm 5 mps 731 mmHg 19%
    20:00 +20°C° 0 mm 5 mps 732 mmHg 21%
    21:00 +20°C° 0 mm 5 mps 732 mmHg 22%
    22:00 +19°C° 0 mm 6 mps 733 mmHg 24%
    23:00 +17°C° 0 mm 6 mps 732 mmHg 26%

    Tomorrow, 20 December, Thursday

    Time Temperature Precipitation Wind Pressure Humidity
    00:00 +17°C° 0 mm 6 mps 732 mmHg 28%
    01:00 +16°C° 0 mm 6 mps 732 mmHg 30%
    02:00 +16°C° 0 mm 6 mps 732 mmHg 31%
    03:00 +15°C° 0 mm 6 mps 732 mmHg 32%
    04:00 +15°C° 0 mm 6 mps 732 mmHg 33%
    05:00 +15°C° 0 mm 7 mps 732 mmHg 33%
    06:00 +15°C° 0 mm 7 mps 732 mmHg 34%
    07:00 +14°C° 0 mm 7 mps 733 mmHg 34%
    08:00 +17°C° 0 mm 8 mps 733 mmHg 30%
    09:00 +19°C° 0 mm 10 mps 733 mmHg 26%
    10:00 +22°C° 0 mm 11 mps 734 mmHg 23%
    11:00 +23°C° 0 mm 11 mps 733 mmHg 21%
    12:00 +26°C° 0 mm 10 mps 733 mmHg 19%
    13:00 +27°C° 0 mm 10 mps 732 mmHg 17%
    14:00 +27°C° 0 mm 9 mps 732 mmHg 17%
    15:00 +27°C° 0 mm 9 mps 731 mmHg 17%
    16:00 +27°C° 0 mm 9 mps 731 mmHg 17%
    17:00 +24°C° 0 mm 8 mps 731 mmHg 19%
    18:00 +22°C° 0 mm 7 mps 731 mmHg 22%
    19:00 +21°C° 0 mm 6 mps 732 mmHg 24%
    20:00 +20°C° 0 mm 6 mps 732 mmHg 26%
    21:00 +19°C° 0 mm 6 mps 732 mmHg 27%
    22:00 +19°C° 0 mm 6 mps 733 mmHg 29%
    23:00 +17°C° 0 mm 6 mps 733 mmHg 30%

    Day after tomorrow, 21 December, Friday

    Time Temperature Precipitation Wind Pressure Humidity
    00:00 +17°C° 0 mm 6 mps 732 mmHg 31%
    01:00 +16°C° 0 mm 6 mps 732 mmHg 33%
    02:00 +16°C° 0 mm 6 mps 732 mmHg 34%
    03:00 +15°C° 0 mm 6 mps 732 mmHg 35%
    04:00 +15°C° 0 mm 6 mps 732 mmHg 35%
    05:00 +15°C° 0 mm 6 mps 732 mmHg 36%
    06:00 +14°C° 0 mm 6 mps 732 mmHg 36%
    07:00 +14°C° 0 mm 6 mps 733 mmHg 36%
    08:00 +16°C° 0 mm 7 mps 733 mmHg 32%
    09:00 +18°C° 0 mm 9 mps 733 mmHg 27%
    10:00 +22°C° 0 mm 10 mps 734 mmHg 22%
    11:00 +23°C° 0 mm 10 mps 733 mmHg 20%
    12:00 +24°C° 0 mm 9 mps 732 mmHg 18%
    13:00 +26°C° 0 mm 9 mps 732 mmHg 16%
    14:00 +26°C° 0 mm 9 mps 731 mmHg 16%
    15:00 +26°C° 0 mm 8 mps 731 mmHg 15%
    16:00 +26°C° 0 mm 8 mps 730 mmHg 15%
    17:00 +24°C° 0 mm 7 mps 731 mmHg 17%
    18:00 +22°C° 0 mm 6 mps 731 mmHg 18%
    19:00 +20°C° 0 mm 5 mps 731 mmHg 20%
    20:00 +20°C° 0 mm 5 mps 732 mmHg 20%
    21:00 +19°C° 0 mm 5 mps 732 mmHg 21%
    22:00 +17°C° 0 mm 5 mps 732 mmHg 21%
    23:00 +17°C° 0 mm 6 mps 732 mmHg 22%

    22 December, Saturday

    Time Temperature Precipitation Wind Pressure Humidity
    00:00 +16°C° 0 mm 6 mps 732 mmHg 23%
    01:00 +15°C° 0 mm 6 mps 731 mmHg 24%
    02:00 +15°C° 0 mm 6 mps 731 mmHg 26%
    03:00 +15°C° 0 mm 6 mps 731 mmHg 27%
    04:00 +14°C° 0 mm 6 mps 730 mmHg 28%
    05:00 +14°C° 0 mm 6 mps 731 mmHg 28%
    06:00 +14°C° 0 mm 6 mps 731 mmHg 28%
    07:00 +14°C° 0 mm 6 mps 732 mmHg 29%
    08:00 +16°C° 0 mm 8 mps 732 mmHg 25%
    09:00 +18°C° 0 mm 9 mps 732 mmHg 22%
    10:00 +21°C° 0 mm 10 mps 733 mmHg 18%
    11:00 +22°C° 0 mm 9 mps 732 mmHg 16%
    12:00 +24°C° 0 mm 9 mps 732 mmHg 15%
    13:00 +26°C° 0 mm 9 mps 731 mmHg 13%
    14:00 +26°C° 0 mm 8 mps 730 mmHg 13%
    15:00 +26°C° 0 mm 8 mps 730 mmHg 13%
    16:00 +26°C° 0 mm 8 mps 730 mmHg 13%
    17:00 +23°C° 0 mm 7 mps 730 mmHg 14%
    18:00 +22°C° 0 mm 6 mps 730 mmHg 16%
    19:00 +20°C° 0 mm 5 mps 731 mmHg 18%
    20:00 +19°C° 0 mm 5 mps 731 mmHg 19%
    21:00 +19°C° 0 mm 5 mps 731 mmHg 20%
    22:00 +17°C° 0 mm 5 mps 732 mmHg 21%
    23:00 +16°C° 0 mm 6 mps 731 mmHg 23%

    23 December, Sunday

    Time Temperature Precipitation Wind Pressure Humidity
    00:00 +16°C° 0 mm 6 mps 731 mmHg 24%
    01:00 +15°C° 0 mm 6 mps 731 mmHg 26%
    02:00 +15°C° 0 mm 6 mps 730 mmHg 27%
    03:00 +14°C° 0 mm 6 mps 730 mmHg 29%
    04:00 +14°C° 0 mm 6 mps 730 mmHg 30%
    05:00 +14°C° 0 mm 6 mps 730 mmHg 30%
    06:00 +14°C° 0 mm 6 mps 731 mmHg 31%
    07:00 +13°C° 0 mm 6 mps 731 mmHg 31%
    08:00 +16°C° 0 mm 8 mps 732 mmHg 27%
    09:00 +18°C° 0 mm 9 mps 732 mmHg 24%
    10:00 +21°C° 0 mm 10 mps 733 mmHg 20%
    11:00 +22°C° 0 mm 10 mps 732 mmHg 18%
    12:00 +23°C° 0 mm 9 mps 731 mmHg 17%
    13:00 +26°C° 0 mm 9 mps 731 mmHg 15%
    14:00 +26°C° 0 mm 8 mps 730 mmHg 15%
    15:00 +26°C° 0 mm 8 mps 730 mmHg 15%
    16:00 +26°C° 0 mm 8 mps 729 mmHg 15%
    17:00 +23°C° 0 mm 7 mps 730 mmHg 17%
    18:00 +21°C° 0 mm 6 mps 730 mmHg 19%
    19:00 +20°C° 0 mm 5 mps 731 mmHg 21%
    20:00 +19°C° 0 mm 5 mps 731 mmHg 23%
    21:00 +17°C° 0 mm 5 mps 731 mmHg 24%
    22:00 +17°C° 0 mm 6 mps 732 mmHg 25%
    23:00 +16°C° 0 mm 6 mps 731 mmHg 27%

    24 December, Monday

    Time Temperature Precipitation Wind Pressure Humidity
    00:00 +16°C° 0 mm 6 mps 731 mmHg 29%
    01:00 +15°C° 0 mm 6 mps 731 mmHg 31%
    02:00 +15°C° 0 mm 6 mps 731 mmHg 32%
    03:00 +14°C° 0 mm 6 mps 731 mmHg 34%
    04:00 +14°C° 0 mm 6 mps 730 mmHg 36%
    05:00 +14°C° 0 mm 6 mps 731 mmHg 37%
    06:00 +13°C° 0 mm 6 mps 731 mmHg 37%
    07:00 +13°C° 0 mm 6 mps 731 mmHg 37%
    08:00 +15°C° 0 mm 7 mps 732 mmHg 33%
    09:00 +17°C° 0 mm 9 mps 732 mmHg 28%
    10:00 +21°C° 0 mm 10 mps 732 mmHg 23%
    11:00 +22°C° 0 mm 9 mps 732 mmHg 21%
    12:00 +23°C° 0 mm 9 mps 731 mmHg 20%
    13:00 +26°C° 0 mm 8 mps 730 mmHg 18%
    14:00 +26°C° 0 mm 8 mps 730 mmHg 18%
    15:00 +26°C° 0 mm 8 mps 730 mmHg 18%
    16:00 +26°C° 0 mm 8 mps 729 mmHg 18%
    17:00 +23°C° 0 mm 7 mps 730 mmHg 20%
    18:00 +21°C° 0 mm 6 mps 730 mmHg 23%
    19:00 +20°C° 0 mm 5 mps 730 mmHg 25%
    20:00 +19°C° 0 mm 5 mps 731 mmHg 26%
    21:00 +19°C° 0 mm 5 mps 731 mmHg 27%
    22:00 +17°C° 0 mm 5 mps 731 mmHg 27%
    23:00 +16°C° 0 mm 5 mps 731 mmHg 29%
    Show more